Volver al catálogo

CZ-6A DEB

ActivoPO
NORAD 61112·DEBRIS·🇨🇳 China

Lanzado Aug 6, 2024 desde Taiyuan Satellite Launch Center

Loading…

Próximos Pases (próximas 24 horas)

TLE

ActualizadoSource: Space-Track

Época: Sep 14, 2026, 06:51 UTC

1 61112U 24140PE  26257.28550954  .00002916  00000-0  63081-3 0  9991
2 61112  89.0285 262.9756 0060951 292.7384  66.7392 14.56888485109334

Sigue CZ-6A DEB en tiempo real con AllMySat

Download on the App Store